This is the latest recevied weather packets stored in our database for station/object KB1JDX. If no packets are shown the sender has not sent any weather packets the latest 10 day(s).
| Time | Temp. | Humidity | Pressure | Rain* | Wind** | Luminosity | Snow |
|---|---|---|---|---|---|---|---|
| 1778216436 | 5° C | 62% | 1008.4 hPa | 0 mm | 0 m/s | - | - |
| 1778215236 | 5.56° C | 65% | 1008.8 hPa | 0 mm | 0 m/s | - | - |
| 1778214037 | 5.56° C | 68% | 1009 hPa | 0 mm | 0 m/s | - | - |
| 1778213968 | 5.56° C | 68% | 1009 hPa | 0 mm | 0 m/s | - | - |
| 1778212837 | 6.11° C | 68% | 1008.9 hPa | 0 mm | 0 m/s | - | - |
| 1778211636 | 6.67° C | 67% | 1008.9 hPa | 0 mm | 0 m/s | - | - |
| 1778210436 | 7.78° C | 65% | 1008.8 hPa | 0 mm | 0 m/s | - | - |
| 1778210368 | 7.78° C | 65% | 1008.8 hPa | 0 mm | 0 m/s | - | - |
| 1778209236 | 7.78° C | 62% | 1008.8 hPa | 0 mm | 0 m/s | - | - |
| 1778208036 | 8.33° C | 59% | 1008.8 hPa | 0 mm | 0 m/s | - | - |
| 1778206836 | 8.89° C | 56% | 1008.8 hPa | 0 mm | 0 m/s | - | - |
| 1778206768 | 9.44° C | 56% | 1008.7 hPa | 0 mm | 0 m/s | - | - |
| 1778205636 | 9.44° C | 56% | 1008.8 hPa | 0 mm | 0 m/s | - | - |
| 1778204436 | 10.56° C | 52% | 1009 hPa | 0 mm | 0 m/s | - | - |
| 1778203236 | 11.11° C | 52% | 1008.9 hPa | 0 mm | 0 m/s | - | - |
| 1778203168 | 11.11° C | 51% | 1008.8 hPa | 0 mm | 0 m/s | - | - |
| 1778202036 | 11.67° C | 49% | 1008.2 hPa | 0 mm | 0 m/s | - | - |
| 1778200836 | 12.22° C | 49% | 1008 hPa | 0 mm | 0 m/s | - | - |
| 1778199636 | 12.78° C | 47% | 1007.7 hPa | 0 mm | 0 m/s | - | - |
| 1778199568 | 12.78° C | 46% | 1007.7 hPa | 0 mm | 0 m/s | - | - |
| 1778198438 | 13.33° C | 44% | 1007.4 hPa | 0 mm | 0 m/s | - | - |
| 1778197236 | 13.89° C | 41% | 1007.2 hPa | 0 mm | 0 m/s | - | - |
| 1778196036 | 14.44° C | 42% | 1007 hPa | 0 mm | 0 m/s | - | - |
| 1778195968 | 14.44° C | 41% | 1006.9 hPa | 0 mm | 0 m/s | - | - |
| 1778194836 | 14.44° C | 39% | 1007 hPa | 0 mm | 0 m/s | - | - |
* Rain latest hour (hover to see other rain measurements)
** Current wind speed in m/s (hover to see current wind gust speed)